User: anonymous   Login
Location: Caltech
(34.1382°N, 118.1253°W)
Time: 22:23:33
(UTC-07:00)
Language:

Cosmos 2360 Rocket - Orbit

View from above orbital plane
View from above orbital plane
View from above satellite
View from above satellite

Ground track
Ground track

The orbit data is extracted from the following two-line orbital elements,

1 25407U 98045B   17230.46824233 -.00000242  00000-0 -98723-4 0  9992
2 25407  71.0102 270.5519 0005602 120.6100 239.5576 14.15762945984993
Epoch (UTC): 18 August 2017 11:14:16
Eccentricity: 0.0005602
inclination: 71.0102°
perigee height: 835 km
apogee height: 844 km
right ascension of ascending node: 270.5519°
argument of perigee: 120.6100°
revolutions per day: 14.15762945
mean anomaly at epoch: 239.5576°
orbit number at epoch: 98499

The dashed part of the orbit path shows where the satellite is in the earth's shadow,  

DLR